Walhalla, ND

4:34 AM CDT on July 27, 2017 (GMT -0500)
Walhalla

Weather History for K96D - October, 2011

Change the Weather History Date:

Monday, October 31, 2011

  Actual Average (KGAF) Record (KGAF)
Temperature  
Mean Temperature 44 °F -  
Max Temperature 57 °F 48 °F 70 °F (1950)
Min Temperature 32 °F 29 °F 3 °F (1991)
Degree Days  
Heating Degree Days 20    
Moisture  
Dew Point 33 °F    
Average Humidity 56    
Maximum Humidity 87    
Minimum Humidity 38    
Precipitation  
Precipitation 0.00 in - - ()
Sea Level Pressure  
Sea Level Pressure 29.69 in    
Wind  
Wind Speed 9 mph (South)    
Max Wind Speed 18 mph    
Max Gust Speed 25 mph    
Visibility 10 miles    
Events      
Averages and records for this station are not official NWS values.
T = Trace of Precipitation, MM = Missing Value Source: NWS Daily Summary

Daily Weather History Graph

Daily Weather History Graph

Search for Another Location

Airport or City:

Trip Planner

Search our weather history database for the weather conditions in past years. The results will help you decide how hot, cold, wet, or windy it might be!

Date:

Astronomy

Oct. 31, 2011 Rise Set
Actual Time 8:16 AM CDT 6:12 PM CDT
Civil Twilight 7:43 AM CDT 6:45 PM CDT
Nautical Twilight 7:06 AM CDT 7:23 PM CDT
Astronomical Twilight 6:29 AM CDT 7:59 PM CDT
Moon 1:36 PM CDT (10/31) 10:40 PM CDT (10/31)
Length of Visible Light 11h 02m
Length of Day
9h 56m
Waxing Crescent, 30% of the Moon is Illuminated
Oct 31
Waxing Crescent
Nov 2
First Quarter
Nov 10
Full
Nov 18
Last Quarter
Nov 25
New

Hourly Weather History & Observations

Time (CDT) Temp. Windchill Dew Point Humidity Pressure Visibility Wind Dir Wind Speed Gust Speed Precip Events Conditions
1:15 AM 32.0 °F - 28.4 °F 87% 29.92 in - Calm Calm - N/A   Unknown
1:55 AM 32.0 °F 27.5 °F 28.4 °F 87% 29.92 in - SSW 4.6 mph - N/A   Mostly Cloudy
2:35 AM 33.8 °F - 30.2 °F 87% 29.90 in - Calm Calm - N/A   Overcast
7:35 AM 35.6 °F 28.0 °F 32.0 °F 87% 29.81 in - ESE 10.4 mph - N/A   Overcast
8:15 AM 35.6 °F 28.0 °F 32.0 °F 87% 29.80 in - South 10.4 mph - N/A   Mostly Cloudy
8:35 AM 39.2 °F 31.2 °F 32.0 °F 75% 29.79 in 10.0 mi South 13.8 mph - N/A   Overcast
8:55 AM 41.0 °F 33.5 °F 32.0 °F 70% 29.77 in 10.0 mi SSE 13.8 mph - N/A   Overcast
9:35 AM 41.0 °F 34.3 °F 32.0 °F 70% 29.76 in 10.0 mi SSE 11.5 mph 19.6 mph N/A   Partly Cloudy
10:15 AM 44.6 °F 38.4 °F 32.0 °F 61% 29.74 in 10.0 mi SSE 12.7 mph - N/A   Clear
10:35 AM 44.6 °F 38.1 °F 32.0 °F 61% 29.73 in 10.0 mi SSE 13.8 mph 20.7 mph N/A   Scattered Clouds
10:55 AM 46.4 °F 39.8 °F 32.0 °F 57% 29.71 in 10.0 mi SSE 16.1 mph 21.9 mph N/A   Overcast
11:15 AM 46.4 °F 39.8 °F 32.0 °F 57% 29.70 in 10.0 mi SSE 16.1 mph 20.7 mph N/A   Overcast
11:35 AM 46.4 °F 40.7 °F 32.0 °F 57% 29.70 in 10.0 mi South 12.7 mph - N/A   Overcast
11:55 AM 48.2 °F - 32.0 °F 54% 29.68 in 10.0 mi SSE 18.4 mph 23.0 mph N/A   Overcast
12:15 PM 50.0 °F - 32.0 °F 50% 29.67 in 10.0 mi SSE 17.3 mph 21.9 mph N/A   Mostly Cloudy
12:35 PM 51.8 °F - 32.0 °F 47% 29.66 in 10.0 mi South 15.0 mph 19.6 mph N/A   Clear
12:55 PM 53.6 °F - 32.0 °F 44% 29.65 in 10.0 mi South 15.0 mph 20.7 mph N/A   Clear
1:15 PM 53.6 °F - 32.0 °F 44% 29.64 in 10.0 mi South 15.0 mph 23.0 mph N/A   Clear
1:35 PM 55.4 °F - 32.0 °F 41% 29.63 in 10.0 mi SSE 13.8 mph 19.6 mph N/A   Clear
1:55 PM 57.2 °F - 32.0 °F 38% 29.63 in 10.0 mi SSW 12.7 mph 18.4 mph N/A   Clear
2:15 PM 57.2 °F - 32.0 °F 38% 29.62 in 10.0 mi South 17.3 mph 25.3 mph N/A   Clear
2:55 PM 57.2 °F - 32.0 °F 38% 29.62 in 10.0 mi SSW 15.0 mph 18.4 mph N/A   Clear
3:15 PM 57.2 °F - 32.0 °F 38% 29.61 in 10.0 mi SSW 10.4 mph 18.4 mph N/A   Clear
3:35 PM 57.2 °F - 32.0 °F 38% 29.61 in 10.0 mi SW 13.8 mph 20.7 mph N/A   Clear
3:55 PM 55.4 °F - 33.8 °F 44% 29.61 in 10.0 mi SSW 12.7 mph 19.6 mph N/A   Clear
4:15 PM 55.4 °F - 33.8 °F 44% 29.61 in 10.0 mi SSW 8.1 mph - N/A   Clear
4:35 PM 55.4 °F - 35.6 °F 47% 29.61 in 10.0 mi SSW 4.6 mph - N/A   Clear
4:55 PM 55.4 °F - 35.6 °F 47% 29.62 in 10.0 mi SW 4.6 mph - N/A   Clear
5:15 PM 55.4 °F - 35.6 °F 47% 29.63 in 10.0 mi SW 4.6 mph - N/A   Scattered Clouds
5:35 PM 55.4 °F - 35.6 °F 47% 29.63 in 10.0 mi WSW 3.5 mph - N/A   Mostly Cloudy
5:55 PM 53.6 °F - 35.6 °F 51% 29.63 in 10.0 mi Calm Calm - N/A   Overcast
6:35 PM 53.6 °F - 35.6 °F 51% 29.64 in 10.0 mi Calm Calm - N/A   Overcast
6:55 PM 53.6 °F - 35.6 °F 51% 29.64 in 10.0 mi WSW 4.6 mph - N/A   Overcast
8:15 PM 50.0 °F - 37.4 °F 62% 29.65 in 10.0 mi West 6.9 mph - N/A   Partly Cloudy
11:15 PM 44.6 °F 39.7 °F 35.6 °F 71% 29.70 in 10.0 mi WNW 9.2 mph - N/A   Partly Cloudy